Midland, TX

10:04 AM CST on December 09, 2016 (GMT -0600)
Midland International

Weather History for KMAF - August, 2013

Change the Weather History Date:

Monday, August 19, 2013

  Actual Average Record
Temperature  
Mean Temperature 85 °F 81 °F  
Max Temperature 99 °F 94 °F 103 °F (1994)
Min Temperature 70 °F 69 °F 60 °F (1950)
Cooling Degree Days 20 16  
Month to date cooling degree days 391 320  
Year to date cooling degree days 1961 1702  
Since 1 June cooling degree days 1473 1313  
Growing Degree Days 34 (Base 50)    
Moisture  
Dew Point 55 °F    
Average Humidity 41    
Maximum Humidity 61    
Minimum Humidity 20    
Precipitation  
Precipitation 0.00 in 0.06 in 1.52 in (1956)
Month to date precipitation 1.17 1.06  
Year to date precipitation 4.56 8.94  
Sea Level Pressure  
Sea Level Pressure 29.88 in    
Wind  
Wind Speed 9 mph (SSE)    
Max Wind Speed 20 mph    
Max Gust Speed 28 mph    
Visibility 10 miles    
Events      
T = Trace of Precipitation, MM = Missing Value Source: NWS Daily Summary

Daily Weather History Graph

Daily Weather History Graph

Search for Another Location

Airport or City:

Trip Planner

Search our weather history database for the weather conditions in past years. The results will help you decide how hot, cold, wet, or windy it might be!

Date:

Astronomy

Aug. 19, 2013 Rise Set
Actual Time 7:16 AM CDT 8:27 PM CDT
Civil Twilight 6:50 AM CDT 8:53 PM CDT
Nautical Twilight 6:20 AM CDT 9:23 PM CDT
Astronomical Twilight 5:48 AM CDT 9:54 PM CDT
Moon 7:20 PM CDT (8/19) 5:39 AM CDT (8/19)
Length of Visible Light 14h 02m
Length of Day
13h 11m
Waxing Gibbous, 97% of the Moon is Illuminated
Aug 19
Waxing Gibbous
Aug 20
Full
Aug 28
Last Quarter
Sep 5
New
Sep 12
First Quarter

Hourly Weather History & Observations

Time (CDT) Temp. Heat Index Dew Point Humidity Pressure Visibility Wind Dir Wind Speed Gust Speed Precip Events Conditions
12:53 AM 78.1 °F - 59.0 °F 52% 29.92 in 10.0 mi SSE 5.8 mph - N/A   Clear
1:53 AM 75.9 °F - 57.9 °F 54% 29.91 in 10.0 mi SSE 5.8 mph - N/A   Clear
2:53 AM 73.9 °F - 57.9 °F 57% 29.91 in 10.0 mi South 4.6 mph - N/A   Clear
3:53 AM 71.1 °F - 57.0 °F 61% 29.91 in 10.0 mi Calm Calm - N/A   Clear
4:53 AM 72.0 °F - 57.0 °F 59% 29.90 in 10.0 mi Calm Calm - N/A   Clear
5:53 AM 72.0 °F - 57.0 °F 59% 29.89 in 10.0 mi SE 3.5 mph - N/A   Clear
6:53 AM 72.0 °F - 57.0 °F 59% 29.89 in 10.0 mi SE 6.9 mph - N/A   Clear
7:53 AM 72.0 °F - 57.0 °F 59% 29.91 in 10.0 mi SSE 3.5 mph - N/A   Clear
8:53 AM 75.0 °F - 57.0 °F 53% 29.93 in 10.0 mi SSE 6.9 mph - N/A   Clear
9:53 AM 82.9 °F 82.4 °F 57.0 °F 41% 29.93 in 10.0 mi South 13.8 mph - N/A   Clear
10:53 AM 87.1 °F 85.9 °F 57.0 °F 36% 29.94 in 10.0 mi South 13.8 mph - N/A   Clear
11:53 AM 89.1 °F 87.7 °F 57.0 °F 34% 29.93 in 10.0 mi South 12.7 mph - N/A   Clear
12:53 PM 93.0 °F 91.4 °F 55.9 °F 29% 29.91 in 10.0 mi South 9.2 mph - N/A   Clear
1:53 PM 96.1 °F 94.1 °F 55.0 °F 25% 29.89 in 10.0 mi South 11.5 mph 18.4 mph N/A   Clear
2:53 PM 97.0 °F 94.6 °F 53.1 °F 23% 29.88 in 10.0 mi South 12.7 mph 20.7 mph N/A   Clear
3:53 PM 98.1 °F - 50.0 °F 20% 29.86 in 10.0 mi SE 11.5 mph 18.4 mph N/A   Clear
4:53 PM 98.1 °F - 50.0 °F 20% 29.83 in 10.0 mi Variable 6.9 mph - N/A   Clear
5:53 PM 97.0 °F - 50.0 °F 20% 29.81 in 10.0 mi South 11.5 mph - N/A   Clear
6:53 PM 96.1 °F - 51.1 °F 22% 29.81 in 10.0 mi SSW 10.4 mph - N/A   Clear
7:53 PM 93.9 °F - 51.1 °F 23% 29.82 in 10.0 mi South 16.1 mph - N/A   Clear
8:53 PM 91.0 °F - 51.1 °F 25% 29.83 in 10.0 mi SSE 11.5 mph - N/A   Clear
9:53 PM 88.0 °F 85.7 °F 53.1 °F 30% 29.84 in 10.0 mi SSE 12.7 mph - N/A   Clear
10:53 PM 87.1 °F 84.9 °F 53.1 °F 31% 29.85 in 10.0 mi South 11.5 mph - N/A   Clear
11:53 PM 84.9 °F 83.3 °F 54.0 °F 34% 29.86 in 10.0 mi South 11.5 mph - N/A   Clear